Location: Bassillon
(43.4500°N, 0.0667°W)
Time: 23:26:59
(UTC+00:00)

Daily predictions for brighter satellites

Satellite Brightness Start Highest point End
(mag) Time Altitude Azimuth Time Altitude Azimuth Time Altitude Azimuth
Feng Yun 1-1 Rocket 4.5 20:02:32 10° S 20:07:59 72° WSW 20:13:23 10° NNW
NOSS 3-1 (C) 4.4 20:08:19 10° SE 20:11:09 16° ESE 20:14:12 10° ENE
Cosmos 1844 4.2 20:07:06 10° SSW 20:12:52 69° WNW 20:18:38 10° NNE
Timation 2 Rocket 4.0 20:06:56 10° S 20:13:09 61° ESE 20:19:10 10° NNE
Cosmos 1025 Rocket 2.9 20:11:44 10° S 20:15:57 71° E 20:20:11 10° NNE
ATLAS CENTAUR R/B 1.5 20:13:04 10° NNW 20:17:04 65° NE 20:21:12 10° SE
CARTOSAT-1 4.4 20:13:10 10° S 20:17:18 50° W 20:21:29 10° NNW
Cosmos 1125 Rocket 3.8 20:17:07 10° S 20:22:08 45° ESE 20:27:11 10° NNE
NOSS 2-3 (E) 3.2 20:18:45 10° SW 20:22:23 82° NW 20:26:20 10° NE
Okean 1 Rocket 3.5 20:18:57 10° NNW 20:23:25 67° W 20:27:49 10° S
Cosmos 1833 Rocket 3.8 20:18:54 10° N 20:23:52 30° NE 20:28:48 10° ESE
Lacrosse 5 3.7 20:19:19 10° W 20:23:58 36° NNW 20:28:38 10° NE
CZ-4B R/B 4.3 20:20:10 10° S 20:25:27 46° W 20:30:52 10° NNW
Cosmos 1455 Rocket 3.3 20:21:10 10° N 20:25:29 53° E 20:29:43 10° SSE
Orbus 7S? 2.9 20:23:10 10° NW 20:25:57 54° NE 20:28:28 12° ESE
Nadezhda 3 Rocket 4.1 20:21:07 10° N 20:27:12 59° E 20:33:15 10° SSE
Cosmos 1975 Rocket 3.5 20:23:26 10° SSE 20:27:41 45° E 20:31:57 10° NNE
PSLV R/B 4.1 20:25:43 10° S 20:29:12 58° W 20:32:46 10° NNW
GP-B 3.1 20:25:33 10° N 20:30:00 88° W 20:34:23 10° S
MetOp-B 4.2 20:29:25 10° SSE 20:34:44 70° ENE 20:40:04 10° N
NOSS 2-2 (D) 3.8 20:32:32 10° SW 20:35:48 50° NW 20:38:50 10° NNE
Cosmos 1844 Rocket 4.4 20:34:16 10° SW 20:39:25 37° WNW 20:44:35 10° N
NOSS 2-3 (C) 4.1 20:38:17 10° SW 20:41:49 52° NW 20:45:42 10° NNE
Cosmos 2082 Rocket 4.3 20:40:02 10° N 20:43:09 15° NE 20:46:17 10° ENE
Meteor 1-21 Rocket 4.4 20:37:56 10° SSW 20:43:28 77° W 20:49:02 10° N
BREEZE-M R/B 3.1 20:42:19 10° SW 20:45:52 47° SE 20:51:58 10° ENE
Cosmos 2278 Rocket 3.3 20:44:51 13° SSE 20:48:32 24° ESE 20:52:57 10° NE
SPOT 3 Rocket 4.3 20:44:38 14° SE 20:48:36 38° ENE 20:53:24 10° N
Cosmos 921 Rocket 3.4 20:44:39 10° NNW 20:48:46 58° WSW 20:52:55 10° S
Meteor 2-1 Rocket 4.2 20:48:44 10° N 20:54:20 71° E 20:59:06 14° SSE
Cosmos 2228 4.0 20:50:44 10° NNE 20:54:25 29° ENE 20:56:37 18° ESE
Cosmos 1869 3.4 20:53:19 10° N 20:57:05 53° E 20:59:33 20° SSE
SPOT 5 3.2 20:52:31 10° S 20:57:26 71° WSW 21:02:38 10° NNW
USA 276 1.9 20:54:46 10° WNW 20:57:42 70° SSW 20:59:13 26° SE
MOS 1 Rocket 3.3 20:55:18 16° SSE 20:58:52 62° ENE 21:03:13 10° N
Resurs 01 Rocket 4.1 20:56:01 10° SW 20:59:05 19° W 21:02:11 10° NW
ERS-1 Rocket 2.9 20:54:54 14° SSE 20:59:10 76° ENE 21:04:12 10° N
Okean O Rocket 3.6 20:56:50 10° SSW 21:00:25 25° W 21:04:01 10° NW
BREEZE-M DEB (TANK) 3.6 20:59:56 10° WNW 21:02:53 70° NNE 21:10:19 12° ESE
ISS -1.2 21:02:13 10° NW 21:04:44 20° N 21:07:15 10° NE
Cosmos 1339 Rocket 4.4 21:02:06 10° N 21:08:20 78° E 21:13:21 16° SSE
Spot 2 Rocket 3.5 21:05:05 18° SSE 21:08:49 68° ENE 21:13:54 10° N
Cosmos 1943 Rocket 3.4 21:09:13 20° SE 21:10:58 23° E 21:15:16 10° NE
Cosmos 614 Rocket 4.5 21:07:35 10° N 21:12:27 45° ENE 21:15:20 22° SE
Meteor 1-11 4.4 21:10:21 10° SSW 21:16:04 76° W 21:21:46 10° N
Cosmos 2341 Rocket 4.0 21:12:17 13° S 21:17:51 66° E 21:24:09 10° NNE
Terra 1.8 21:15:28 19° S 21:18:53 83° WSW 21:23:38 10° NNW
CZ-4C R/B 4.3 21:17:27 10° N 21:20:52 41° WNW 21:24:09 10° SW
Cosmos 2098 4.4 21:22:31 32° SSE 21:23:50 56° E 21:26:52 10° NNE
Cosmos 44 3.9 21:20:01 10° SW 21:25:17 66° NW 21:30:20 10° NNE
ATLAS 3B R/B 3.4 21:27:18 21° SSE 21:31:12 35° ESE 21:37:51 10° NE
Ariane Rocket 3.1 21:33:17 23° S 21:36:27 76° WSW 21:41:32 10° NNW
Cosmos 1606 3.6 21:33:07 10° NNW 21:36:28 40° W 21:38:26 21° SSW
Cosmos 2298 Rocket 4.2 21:32:02 10° SSW 21:37:21 74° WNW 21:42:42 10° NNE
CZ-4C R/B 4.4 21:32:56 10° NNW 21:38:45 28° NE 21:45:34 10° E
Landsat 5 3.7 21:36:29 10° NNE 21:40:48 53° E 21:42:12 36° SSE
USA 215 3.6 21:36:57 24° SSE 21:40:52 56° SW 21:47:20 10° NW
Cosmos 1821 Rocket 4.4 21:38:58 27° SSE 21:42:03 47° E 21:48:07 10° NNE
Cosmos 1544 Rocket 3.9 21:39:02 10° NNW 21:43:18 60° W 21:45:34 26° SSW
Cosmos 1437 Rocket 3.1 21:44:58 22° SSW 21:47:04 56° WNW 21:50:39 10° N
ATLAS CENTAUR R/B 3.8 21:52:12 10° W 21:54:12 13° WSW 21:56:12 10° SW
Geosat 3.9 21:51:26 10° NNE 21:56:29 90° ESE 22:00:33 16° SSW
ULPM Upper Stage 4.1 21:53:41 10° NNW 21:57:39 33° NE 21:59:29 23° E
Meteor 2-13 Rocket 4.5 21:53:09 10° N 21:59:18 67° E 22:02:01 35° SSE
NOSS 3-1 (C) 3.3 21:56:08 10° SW 22:00:55 67° NW 22:06:41 10° NNE
Cosmos 1269 Rocket 4.3 21:56:02 10° NNW 22:01:16 57° ENE 22:03:08 37° SE
BREEZE-M DEB (TANK) 2.4 22:01:45 10° NW 22:03:36 41° NNW 22:03:36 41° NNW
Cosmos 2366 rocket 4.2 22:00:34 17° SSW 22:05:22 67° W 22:11:30 10° N
Cosmos 1833 Rocket 3.5 22:02:35 10° NW 22:07:55 44° WSW 22:10:33 26° SSW
Cosmos 2058 4.1 22:10:23 27° E 22:10:23 27° E 22:13:34 10° NNE
Milstar 3 4.4 22:07:32 10° SSW 22:17:16 26° SE 22:26:07 10° E
Cosmos 1606 Rocket 3.4 22:11:52 10° N 22:16:11 79° E 22:16:53 61° SSE
Cosmos 1726 Rocket 3.6 22:12:49 10° N 22:17:06 59° E 22:17:37 54° ESE
Cosmos 2239 Rocket 4.4 22:23:14 41° SSE 22:25:29 70° E 22:31:42 10° NNE
Cosmos 2082 Rocket 2.1 22:22:33 10° NNW 22:28:12 78° ENE 22:29:49 48° SE
Cosmos 1140 Rocket 4.0 22:25:49 10° N 22:30:47 46° ENE 22:32:00 39° ESE
Cosmos 2278 Rocket 2.9 22:26:42 10° SW 22:32:12 52° WNW 22:37:45 10° NNE
Cosmos 2084 Rocket 3.1 22:28:39 10° NW 22:32:32 82° W 22:32:32 82° W
Cosmos 2369 Rocket 3.7 22:33:17 20° E 22:33:17 20° E 22:36:39 10° NE
USA 290 3.8 22:35:24 29° W 22:35:52 31° WNW 22:38:45 10° N
SL-08 R/B 4.3 22:35:16 43° S 22:37:28 85° E 22:43:37 10° N
Cosmos 2123 Rocket 4.3 22:31:20 10° N 22:37:31 55° ENE 22:39:23 41° SE
Cosmos 1000 Rocket 4.4 22:32:54 10° N 22:39:05 83° E 22:41:00 47° SSE
NOSS 3-1 (A) 3.1 22:37:23 24° SW 22:40:21 73° NW 22:46:10 10° NE
Cosmos 1812 2.8 22:37:29 10° N 22:40:34 65° N 22:40:34 65° N
ISS -2.6 22:38:56 10° NW 22:41:59 40° NNE 22:41:59 40° NNE
PSLV R/B 4.1 22:38:58 10° NNE 22:42:29 56° ENE 22:42:29 56° ENE
USA 307 4.4 22:41:09 10° NW 22:44:26 26° NNE 22:45:39 22° NE
Cosmos 1782 4.2 22:44:01 10° NNE 22:46:49 26° ENE 22:46:49 26° ENE
Cosmos 2251 Rocket 4.4 22:42:23 10° N 22:47:23 38° ENE 22:48:44 33° E
Cosmos 489 Rocket 4.4 22:46:57 49° SSE 22:48:33 68° ESE 22:54:44 10° NNE
Alouette 2 Rocket 3.6 22:49:20 69° ESE 22:49:32 71° E 22:55:06 10° NNE
Cosmos 2058 Rocket 3.0 22:46:51 10° N 22:51:12 72° E 22:51:14 72° E
Cosmos 1943 Rocket 2.8 22:50:39 21° SW 22:54:17 54° WNW 22:59:49 10° NNE
Cosmos 1271 Rocket 4.0 22:58:20 32° NE 22:58:20 32° NE 23:00:48 10° NNE
H-2A R/B 4.5 22:59:16 10° ENE 22:59:25 10° ENE 22:59:25 10° ENE
Cosmos 192 4.4 23:00:07 53° SW 23:01:10 72° WNW 23:06:08 10° NNE
Spot 4 3.9 23:01:14 62° ESE 23:01:43 67° ENE 23:06:32 10° N
Meteor 2-19 Rocket 4.5 22:58:28 10° N 23:04:37 70° E 23:06:01 53° SE
ARIANE 5 R/B 2.9 23:04:43 57° WSW 23:04:53 57° W 23:09:19 10° NNW
Cosmos 1934 Rocket 3.9 23:03:26 51° S 23:05:10 87° E 23:11:24 10° N
USA 305 3.9 23:03:32 10° NW 23:05:57 32° N 23:05:57 32° N
COSMOS 2406 3.2 23:01:23 10° NNW 23:07:01 66° WSW 23:07:56 57° SSW
USA 229 DEB 3.4 23:07:39 55° SSE 23:08:33 60° ESE 23:15:03 10° NE
USA 229 3.4 23:07:50 55° SSE 23:08:40 60° ESE 23:15:11 10° NE
Lacrosse 4 Rocket 3.4 23:15:04 17° ENE 23:15:04 17° ENE 23:16:28 10° NE
USA 281 4.1 23:11:31 25° ESE 23:14:41 41° NE 23:20:45 10° NNW
H-2A R/B 2.7 23:18:20 61° NNW 23:18:20 61° NNW 23:21:32 10° NNW
Lacrosse 5 rocket 3.3 23:23:16 18° ENE 23:23:16 18° ENE 23:24:24 10° ENE
ATLAS 3B R/B 3.4 23:14:36 10° SW 23:21:37 57° NW 23:29:11 10° NNE
ALOS 2 2.6 23:22:03 74° NE 23:22:03 74° NE 23:26:17 10° N
CZ-4C R/B 3.0 23:20:47 10° NW 23:28:07 86° NE 23:31:35 41° SE
Cosmos 2285 Rocket 4.3 23:24:53 10° NNW 23:31:15 60° ENE 23:33:03 44° ESE
Cosmos 1758 Rocket 3.8 23:31:55 61° NE 23:31:55 61° NE 23:35:39 10° NNE
BREEZE-M DEB (TANK) 4.2 23:11:44 10° SW 23:31:44 63° SSE 23:36:27 10° ENE
Cosmos-2242 3.2 23:27:36 10° N 23:31:18 68° N 23:31:18 68° N
SeaSat 1 2.3 23:33:22 72° ESE 23:33:45 78° ENE 23:38:41 10° NNW
Cosmos 1238 Rocket 3.6 23:30:12 10° NNW 23:33:08 47° NW 23:33:08 47° NW
Cosmos 1626 Rocket 3.7 23:34:36 68° NW 23:34:36 68° NW 23:38:34 10° N
Okean 1-7 Rocket 3.9 23:35:24 59° NE 23:35:24 59° NE 23:39:13 10° NNE
Gblst 52 Del rocket 4.0 23:34:16 62° SW 23:35:16 85° SE 23:40:46 10° ENE
ULPM Upper Stage 4.2 23:33:06 10° NW 23:35:49 28° W 23:35:49 28° W
Exosat Rocket 4.0 23:33:09 10° NNW 23:38:20 50° ENE 23:39:13 45° E
SL-19 R/B 4.5 23:32:32 10° NNE 23:39:11 80° ESE 23:40:28 59° S
Meteor 2-3 Rocket 3.6 23:38:47 68° S 23:39:34 90° ESE 23:45:16 10° N
Gbstr 26 Del rocket 3.9 23:34:32 10° NW 23:39:43 69° NNE 23:42:40 32° ESE
Meteor 2-2 Rocket 4.1 23:35:38 10° N 23:41:25 86° W 23:42:15 67° S
BREEZE-M DEB (TANK) 4.2 23:43:08 10° WNW 23:46:39 84° NNE 23:58:11 10° ESE
Cosmos 1605 Rocket 3.9 23:47:24 56° SW 23:48:40 74° W 23:54:50 10° N
Cosmos 2297 3.7 23:47:55 60° SW 23:48:59 77° WNW 23:54:43 10° NNE
Cosmos 1666 4.2 23:51:09 30° NNE 23:51:09 30° NNE 23:53:01 10° NNE
Spot 2 4.3 23:51:34 64° WNW 23:51:34 64° WNW 23:55:26 10° NNW
Cosmos 1656 Rocket 3.7 23:50:27 56° WSW 23:51:26 69° WNW 23:56:59 10° NNE
Lacrosse 5 4.3 23:48:58 10° NNW 23:52:51 21° NNE 23:56:44 10° ENE
COSMOS 2455 3.7 23:47:11 10° NNW 23:52:58 44° NE 23:55:40 28° ESE
Cosmos 407 Rocket 3.9 23:49:12 10° NNW 23:54:10 50° WSW 23:54:10 50° WSW
